When you browse on this site, cookies collect data to enhance your experience and personalize the content and advertising you see.
Visit our Privacy Policy to learn more. By continuing to use the site, you agree to this use of cookies and data.
  • Em Portugal
  • Lista de países
  • Para 7 dias
  • Temperatura da água
  • Mapas de satélite
  • Mapa do tempo
  • Widgets de tempo
  • user-avatar
    Iniciar Sessão

    Previsão horária em Ogorodchiki

    Hoje, 16 Janeiro, Quarta-feira

    Tempo Temperatura Precipitação Vento Pressão Humidade
    00:00 -6°C° 0.1 mm 2 m/s 731 mmHg 96%
    01:00 -6°C° 0.1 mm 3 m/s 731 mmHg 95%
    02:00 -6°C° 0 mm 3 m/s 731 mmHg 94%
    03:00 -6°C° 0.1 mm 3 m/s 731 mmHg 94%
    04:00 -6°C° 0.1 mm 3 m/s 731 mmHg 94%
    05:00 -7°C° 0.1 mm 3 m/s 732 mmHg 94%
    06:00 -8°C° 0 mm 3 m/s 732 mmHg 95%
    07:00 -9°C° 0 mm 3 m/s 733 mmHg 95%
    08:00 -10°C° 0 mm 3 m/s 734 mmHg 95%
    09:00 -9°C° 0 mm 3 m/s 734 mmHg 94%
    10:00 -8°C° 0 mm 3 m/s 735 mmHg 92%
    11:00 -8°C° 0 mm 3 m/s 736 mmHg 91%
    12:00 -7°C° 0 mm 3 m/s 736 mmHg 91%
    13:00 -6°C° 0 mm 3 m/s 737 mmHg 91%
    14:00 -6°C° 0 mm 3 m/s 737 mmHg 91%
    15:00 -6°C° 0 mm 2 m/s 737 mmHg 92%
    16:00 -7°C° 0 mm 2 m/s 738 mmHg 94%
    17:00 -8°C° 0 mm 2 m/s 738 mmHg 96%
    18:00 -8°C° 0 mm 2 m/s 738 mmHg 97%
    19:00 -9°C° 0 mm 3 m/s 738 mmHg 97%
    20:00 -9°C° 0 mm 3 m/s 738 mmHg 98%
    21:00 -8°C° 0.1 mm 3 m/s 737 mmHg 96%
    22:00 -8°C° 0.1 mm 4 m/s 737 mmHg 95%
    23:00 -6°C° 0.1 mm 5 m/s 737 mmHg 94%

    Amanhã, 17 Janeiro, Quinta-feira

    Tempo Temperatura Precipitação Vento Pressão Humidade
    00:00 -5°C° 0.1 mm 5 m/s 736 mmHg 94%
    01:00 -4°C° 0.1 mm 5 m/s 736 mmHg 94%
    02:00 -2°C° 0.1 mm 5 m/s 736 mmHg 94%
    03:00 -2°C° 0.1 mm 6 m/s 735 mmHg 95%
    04:00 -2°C° 0.1 mm 6 m/s 735 mmHg 95%
    05:00 -2°C° 0.1 mm 6 m/s 734 mmHg 96%
    06:00 -1°C° 0.2 mm 6 m/s 734 mmHg 96%
    07:00 -1°C° 0.2 mm 6 m/s 734 mmHg 95%
    08:00 -1°C° 0.2 mm 6 m/s 733 mmHg 94%
    09:00 -1°C° 0.2 mm 7 m/s 733 mmHg 93%
    10:00 -2°C° 0.2 mm 7 m/s 732 mmHg 92%
    11:00 -2°C° 0.2 mm 8 m/s 732 mmHg 91%
    12:00 -2°C° 0 mm 8 m/s 732 mmHg 90%
    13:00 -2°C° 0 mm 8 m/s 731 mmHg 88%
    14:00 -2°C° 0 mm 8 m/s 731 mmHg 86%
    15:00 -2°C° 0.1 mm 8 m/s 731 mmHg 87%
    16:00 -1°C° 0.1 mm 7 m/s 731 mmHg 88%
    17:00 -1°C° 0.1 mm 7 m/s 732 mmHg 89%
    18:00 -1°C° 0.1 mm 7 m/s 732 mmHg 89%
    19:00 -1°C° 0.1 mm 7 m/s 732 mmHg 88%
    20:00 -1°C° 0.1 mm 7 m/s 733 mmHg 88%
    21:00 -1°C° 0 mm 7 m/s 733 mmHg 88%
    22:00 -1°C° 0 mm 7 m/s 733 mmHg 89%
    23:00 -1°C° 0 mm 7 m/s 733 mmHg 89%

    Depois de amanhã, 18 Janeiro, Sexta-feira

    Tempo Temperatura Precipitação Vento Pressão Humidade
    00:00 -1°C° 0 mm 7 m/s 733 mmHg 90%
    01:00 -2°C° 0 mm 7 m/s 733 mmHg 91%
    02:00 -2°C° 0 mm 6 m/s 733 mmHg 92%
    03:00 -2°C° 0.6 mm 7 m/s 732 mmHg 91%
    04:00 -1°C° 0.6 mm 7 m/s 732 mmHg 90%
    05:00 -1°C° 0.6 mm 8 m/s 732 mmHg 90%
    06:00 -2°C° 0.2 mm 7 m/s 732 mmHg 88%
    07:00 -3°C° 0.2 mm 6 m/s 732 mmHg 86%
    08:00 -4°C° 0.2 mm 6 m/s 732 mmHg 85%
    09:00 -4°C° 0 mm 6 m/s 733 mmHg 85%
    10:00 -4°C° 0 mm 6 m/s 733 mmHg 84%
    11:00 -4°C° 0 mm 6 m/s 733 mmHg 84%
    12:00 -4°C° 0.4 mm 6 m/s 734 mmHg 86%
    13:00 -4°C° 0.4 mm 6 m/s 734 mmHg 89%
    14:00 -4°C° 0.4 mm 5 m/s 735 mmHg 91%
    15:00 -5°C° 0.1 mm 5 m/s 736 mmHg 88%
    16:00 -6°C° 0.1 mm 6 m/s 737 mmHg 85%
    17:00 -8°C° 0.1 mm 6 m/s 738 mmHg 82%
    18:00 -7°C° 0 mm 5 m/s 740 mmHg 84%
    19:00 -7°C° 0 mm 5 m/s 741 mmHg 87%
    20:00 -7°C° 0 mm 5 m/s 742 mmHg 89%
    21:00 -8°C° 0 mm 5 m/s 742 mmHg 89%
    22:00 -8°C° 0 mm 5 m/s 743 mmHg 88%
    23:00 -9°C° 0 mm 4 m/s 744 mmHg 88%

    19 Janeiro, Sábado

    Tempo Temperatura Precipitação Vento Pressão Humidade
    00:00 -8°C° 0 mm 5 m/s 744 mmHg 88%
    01:00 -8°C° 0 mm 5 m/s 745 mmHg 88%
    02:00 -8°C° 0 mm 5 m/s 745 mmHg 88%
    03:00 -8°C° 0 mm 5 m/s 745 mmHg 88%
    04:00 -8°C° 0 mm 5 m/s 746 mmHg 87%
    05:00 -9°C° 0 mm 4 m/s 746 mmHg 87%
    06:00 -9°C° 0 mm 4 m/s 746 mmHg 88%
    07:00 -9°C° 0 mm 4 m/s 747 mmHg 89%
    08:00 -9°C° 0 mm 4 m/s 747 mmHg 91%
    09:00 -9°C° 0 mm 4 m/s 747 mmHg 91%
    10:00 -8°C° 0 mm 4 m/s 747 mmHg 91%
    11:00 -7°C° 0 mm 4 m/s 747 mmHg 91%
    12:00 -7°C° 0.1 mm 4 m/s 747 mmHg 91%
    13:00 -5°C° 0.1 mm 4 m/s 747 mmHg 91%
    14:00 -5°C° 0.1 mm 5 m/s 747 mmHg 90%
    15:00 -4°C° 0.1 mm 4 m/s 747 mmHg 91%
    16:00 -5°C° 0.1 mm 4 m/s 747 mmHg 91%
    17:00 -5°C° 0.1 mm 3 m/s 747 mmHg 91%
    18:00 -5°C° 0 mm 3 m/s 747 mmHg 93%
    19:00 -6°C° 0 mm 3 m/s 747 mmHg 94%
    20:00 -7°C° 0 mm 4 m/s 747 mmHg 95%
    21:00 -7°C° 0 mm 4 m/s 747 mmHg 94%
    22:00 -7°C° 0 mm 4 m/s 747 mmHg 93%
    23:00 -6°C° 0 mm 5 m/s 747 mmHg 92%

    20 Janeiro, Domingo

    Tempo Temperatura Precipitação Vento Pressão Humidade
    00:00 -7°C° 0 mm 5 m/s 747 mmHg 92%
    01:00 -7°C° 0 mm 5 m/s 747 mmHg 93%
    02:00 -8°C° 0 mm 5 m/s 747 mmHg 94%
    03:00 -8°C° 0.1 mm 4 m/s 747 mmHg 94%
    04:00 -7°C° 0.1 mm 4 m/s 747 mmHg 95%
    05:00 -6°C° 0.1 mm 3 m/s 747 mmHg 95%
    06:00 -6°C° 0 mm 3 m/s 747 mmHg 96%
    07:00 -6°C° 0 mm 2 m/s 747 mmHg 96%
    08:00 -6°C° 0 mm 2 m/s 747 mmHg 97%
    09:00 -6°C° 0 mm 2 m/s 747 mmHg 96%
    10:00 -5°C° 0 mm 2 m/s 747 mmHg 95%
    11:00 -5°C° 0 mm 2 m/s 747 mmHg 93%
    12:00 -5°C° 0 mm 2 m/s 747 mmHg 92%
    13:00 -4°C° 0 mm 2 m/s 746 mmHg 92%
    14:00 -4°C° 0 mm 2 m/s 746 mmHg 91%
    15:00 -5°C° 0 mm 2 m/s 746 mmHg 92%
    16:00 -5°C° 0 mm 2 m/s 746 mmHg 92%
    17:00 -5°C° 0 mm 2 m/s 745 mmHg 92%
    18:00 -6°C° 0.1 mm 2 m/s 746 mmHg 93%
    19:00 -6°C° 0.1 mm 2 m/s 746 mmHg 94%
    20:00 -6°C° 0.1 mm 2 m/s 746 mmHg 96%
    21:00 -8°C° 0 mm 3 m/s 746 mmHg 95%
    22:00 -8°C° 0 mm 3 m/s 747 mmHg 94%
    23:00 -9°C° 0 mm 3 m/s 747 mmHg 94%

    21 Janeiro, Segunda-feira

    Tempo Temperatura Precipitação Vento Pressão Humidade
    00:00 -11°C° 0 mm 4 m/s 747 mmHg 93%
    01:00 -11°C° 0 mm 4 m/s 748 mmHg 93%
    02:00 -11°C° 0 mm 4 m/s 748 mmHg 92%
    03:00 -12°C° 0 mm 4 m/s 748 mmHg 92%
    04:00 -12°C° 0 mm 4 m/s 749 mmHg 92%
    05:00 -12°C° 0 mm 4 m/s 749 mmHg 92%
    06:00 -14°C° 0 mm 4 m/s 750 mmHg 92%
    07:00 -14°C° 0 mm 4 m/s 750 mmHg 92%
    08:00 -14°C° 0 mm 3 m/s 751 mmHg 92%
    09:00 -14°C° 0 mm 4 m/s 751 mmHg 90%
    10:00 -14°C° 0 mm 4 m/s 752 mmHg 89%
    11:00 -12°C° 0 mm 4 m/s 752 mmHg 87%
    12:00 -12°C° 0 mm 4 m/s 752 mmHg 86%
    13:00 -11°C° 0 mm 4 m/s 753 mmHg 84%
    14:00 -10°C° 0 mm 4 m/s 753 mmHg 83%
    15:00 -11°C° 0 mm 4 m/s 753 mmHg 85%
    16:00 -10°C° 0 mm 3 m/s 753 mmHg 88%
    17:00 -10°C° 0 mm 2 m/s 754 mmHg 90%
    18:00 -9°C° 0 mm 2 m/s 754 mmHg 91%
    19:00 -9°C° 0 mm 2 m/s 754 mmHg 92%
    20:00 -10°C° 0 mm 3 m/s 754 mmHg 94%
    21:00 -9°C° 0 mm 2 m/s 754 mmHg 94%
    22:00 -9°C° 0 mm 2 m/s 754 mmHg 94%
    23:00 -10°C° 0 mm 2 m/s 755 mmHg 94%
    Mostrar mais